GFSFLT2_prec_cloud_066.txt.gz
Cloud_Cover
100 100 100 100 100 100 100 100 100 100 100 100 100 98 100 100 100 100 93 44 5 96 12 30 5 92 74 12 68 16 8 5
100 100 78 100 100 100 100 100 100 100 100 100 100 100 100 100 100 100 7 5 5 5 85 50 100 75 19 100 68 5 36 57
100 100 100 98 100 100 100 100 100 100 100 100 100 100 98 100 100 100 84 65 15 6 86 100 100 27 100 97 5 7 50 88
100 99 100 100 100 100 100 100 100 100 100 100 100 100 70 99 100 100 100 97 7 97 100 100 100 100 100 36 72 99 88 18
100 100 100 100 100 100 100 100 100 100 100 100 100 100 100 100 95 100 100 100 100 100 100 100 100 100 83 96 99 100 11 8
100 100 100 100 100 100 100 100 100 100 100 100 100 100 98 44 98 90 100 100 81 100 100 100 100 100 100 100 100 100 8 15
83 100 100 100 84 100 100 100 100 100 100 100 100 100 62 43 42 89 98 81 79 96 100 100 100 100 100 100 47 99 63 92
97 100 100 100 44 100 100 100 100 100 100 100 100 100 91 89 89 100 100 100 99 100 100 100 100 100 100 100 100 100 100 95
98 100 100 100 100 100 100 100 100 100 100 100 100 100 100 100 99 50 100 100 98 100 100 100 100 100 100 100 100 100 88 30
99 90 100 87 100 100 100 100 100 100 100 100 100 100 100 100 100 100 100 100 100 100 100 100 100 100 100 94 100 89 100 71
92 100 75 100 100 100 100 100 100 100 100 100 100 100 100 100 100 100 100 100 100 100 100 100 100 100 79 100 82 86 100 92
36 100 100 100 100 100 100 100 100 100 100 100 100 100 100 100 100 100 100 100 100 100 100 100 100 100 100 100 90 72 100 68
100 100 100 100 99 100 100 100 100 100 100 100 100 100 100 100 100 100 100 100 100 100 100 100 100 100 100 100 100 72 41 74
100 100 72 98 76 98 100 100 100 100 100 100 100 100 100 100 100 100 100 100 100 100 100 100 100 100 100 100 100 100 99 80
100 100 100 84 100 97 98 100 100 100 100 100 100 100 100 100 100 100 100 100 100 100 100 100 100 100 100 100 99 100 83 100
0 86 100 98 100 99 100 100 100 97 100 100 100 100 100 100 98 100 100 100 100 100 100 100 100 100 100 100 100 99 100 88
0 76 99 100 100 98 100 96 99 98 100 100 100 100 100 100 100 100 100 100 100 100 100 100 100 100 100 100 100 100 100 100
0 34 47 100 100 100 100 100 100 100 100 100 100 100 100 100 100 100 100 99 100 100 100 100 100 100 100 100 100 100 100 100
0 0 34 37 100 83 100 94 100 100 100 100 100 100 100 100 100 100 100 100 100 100 100 100 100 100 100 100 100 100 100 100
0 0 6 67 80 100 80 82 86 100 100 100 100 100 100 100 100 100 100 100 100 100 100 100 100 100 100 100 100 100 100 100

GFSFLT2_prec_cloud_072.txt.gz
Cloud_Cover
0 0 10 65 2 4 100 100 100 100 100 100 100 100 100 100 100 100 100 38 99 97 93 66 98 100 100 100 100 100 100 6
16 17 17 31 92 100 100 100 100 100 100 100 100 100 100 100 100 100 100 99 61 56 88 30 100 100 100 100 100 100 100 86
30 41 60 98 100 100 100 100 100 100 100 100 100 100 100 100 100 100 100 100 97 27 55 62 100 100 100 100 87 30 90 69
32 52 44 54 100 100 100 100 100 100 100 100 100 100 100 100 100 98 100 100 60 93 97 70 100 100 100 27 6 16 100 99
33 51 68 100 100 100 100 100 100 63 100 100 100 100 100 100 100 100 52 100 100 94 100 96 100 100 94 50 29 100 100 100
27 67 29 61 100 100 100 100 100 100 100 100 100 100 100 100 100 100 100 100 100 100 92 100 93 100 66 100 100 100 100 100
48 94 100 80 100 100 100 100 100 100 100 100 100 100 100 100 100 100 100 100 76 57 92 93 82 100 100 100 100 100 100 100
11 48 74 98 100 100 100 100 100 100 100 100 100 100 100 100 100 100 76 100 99 94 100 95 64 99 100 93 100 100 100 94
1 8 89 100 100 100 100 100 100 100 100 100 100 100 100 100 100 100 100 39 100 89 99 96 68 91 100 100 100 100 100 100
0 0 5 34 100 100 100 100 100 100 100 100 100 100 100 100 100 100 100 99 88 95 69 100 92 99 100 100 100 100 100 100
6 6 51 92 100 100 100 100 100 100 100 100 100 100 100 100 100 100 100 94 78 83 100 89 62 100 100 100 100 100 100 100
0 73 100 44 82 100 100 100 100 100 100 100 100 100 100 100 100 100 100 100 100 69 65 50 88 100 100 100 100 98 100 100
53 100 79 81 80 91 100 100 100 100 100 100 100 100 100 100 100 100 100 100 100 99 68 100 82 100 100 100 100 100 100 100
11 53 99 72 100 91 100 100 100 100 100 100 100 100 100 100 100 100 100 100 100 99 100 100 100 100 100 100 100 100 100 100
94 100 94 95 100 91 97 100 100 100 100 100 100 100 100 100 100 100 100 100 100 100 100 100 100 100 100 100 100 100 100 100
65 64 74 89 100 100 88 100 93 96 100 100 100 100 100 100 100 100 100 100 100 100 100 100 100 100 100 100 100 100 100 100
53 43 41 26 96 78 96 100 95 100 100 100 100 100 100 100 100 100 100 100 100 100 100 100 100 100 100 100 100 100 100 100
77 46 39 30 54 97 67 85 97 100 100 100 100 100 100 100 100 100 100 100 100 100 100 100 100 100 100 100 100 100 100 100
100 46 84 62 51 74 63 64 96 42 100 100 100 100 100 100 100 100 100 100 100 100 100 100 100 100 100 100 100 100 100 100
100 96 84 100 96 67 96 100 95 100 37 96 97 50 95 100 100 100 100 100 100 100 100 100 100 100 100 100 100 100 100 100

GFSFLT2_prec_cloud_078.txt.gz
Cloud_Cover
54 100 93 37 27 2 0 0 9 100 100 100 100 100 100 100 100 100 100 5 5 13 39 34 77 78 1 64 91 100 52 100
32 100 100 100 100 34 21 26 100 100 100 100 100 100 100 100 100 100 100 59 18 64 42 8 5 39 95 97 45 95 98 100
38 100 100 100 100 100 50 15 100 100 100 100 100 100 100 100 100 100 100 100 100 100 77 100 30 73 42 69 100 80 96 97
96 100 81 96 81 50 71 58 100 100 100 100 100 100 100 100 100 100 100 100 100 100 64 10 74 91 68 100 99 84 100 100
100 100 82 100 100 100 98 100 100 100 100 100 100 100 100 100 100 100 100 100 100 100 39 29 22 100 81 69 88 83 100 93
99 100 100 100 100 100 100 100 100 100 100 100 100 100 100 100 100 100 100 100 100 52 77 46 79 98 92 100 99 90 61 99
100 100 100 86 93 94 100 100 100 100 100 100 100 100 100 100 100 100 100 100 100 89 100 100 85 99 85 100 100 99 100 98
100 100 98 100 100 91 100 100 100 100 100 100 100 100 100 100 96 100 100 100 100 100 100 100 100 100 80 99 100 100 84 100
100 99 100 58 88 82 100 100 100 100 100 100 100 100 100 100 81 100 100 100 100 72 62 100 93 47 94 100 100 83 98 100
100 100 100 61 80 83 90 100 100 100 100 100 100 100 100 100 100 100 100 100 100 100 100 100 100 100 100 100 100 60 80 100
100 100 100 74 89 100 100 100 100 100 100 100 100 100 100 100 100 100 100 100 100 100 100 100 97 77 100 96 100 46 100 100
100 100 100 98 100 100 97 100 100 100 100 100 100 100 100 100 100 100 100 100 100 100 100 96 99 91 100 100 93 95 100 100
100 100 100 100 100 100 100 100 100 100 100 100 100 100 100 100 100 100 100 100 100 100 100 100 100 100 99 98 82 84 100 100
100 100 100 100 54 100 82 100 100 100 100 100 100 100 100 100 100 100 100 100 100 100 100 100 100 100 93 94 96 95 100 100
100 100 100 99 98 100 80 98 100 100 100 100 100 100 100 100 100 100 100 100 100 100 100 100 100 100 100 94 73 86 99 82
100 100 100 100 40 100 82 100 100 100 100 100 100 100 100 100 100 100 100 100 100 98 98 100 99 100 100 100 95 99 100 93
93 88 100 100 100 100 6 55 98 100 100 100 100 100 100 100 100 100 100 100 100 100 100 100 100 100 100 100 100 100 100 100
50 35 65 99 100 100 3 52 100 79 99 100 100 100 100 100 100 100 100 100 100 100 100 100 100 100 100 100 100 100 100 100
65 100 100 100 100 100 84 12 100 83 84 99 100 100 100 100 100 100 100 100 100 100 100 100 100 100 100 100 100 100 100 100
100 100 100 100 100 100 94 0 8 18 38 72 100 100 100 100 100 100 100 100 100 100 100 100 100 100 100 100 100 100 100 100

GFSFLT2_prec_cloud_081.txt.gz
Cloud_Cover
100 100 63 94 100 20 0 0 0 0 78 100 100 100 100 100 100 100 100 100 97 24 95 35 82 100 87 10 84 99 57 33
89 100 100 53 89 90 0 0 0 0 57 100 100 100 100 100 100 100 100 100 100 30 87 100 93 13 6 60 55 84 5 9
43 100 100 71 100 100 40 8 5 24 100 100 100 100 100 100 100 100 100 100 100 29 10 59 30 5 96 100 31 70 5 9
84 100 100 100 100 100 100 100 77 100 100 98 100 100 100 100 100 100 100 100 100 100 88 92 62 95 60 99 99 34 5 85
100 100 100 100 100 100 100 100 100 51 100 100 100 100 100 100 100 100 100 100 100 100 100 100 100 86 60 88 66 21 94 100
100 100 100 100 100 100 100 100 100 98 97 100 100 100 100 100 100 94 100 100 100 100 93 85 64 52 33 78 100 46 73 95
100 100 100 63 90 100 100 100 100 100 91 99 100 100 100 100 100 99 100 100 100 93 89 79 68 56 98 98 54 97 75 100
100 100 100 60 97 91 100 100 100 100 100 100 100 100 100 100 100 100 100 100 100 92 36 62 99 16 92 99 93 100 66 100
100 100 100 30 99 90 100 100 100 100 100 100 100 100 100 100 100 100 100 100 100 99 95 89 100 100 95 23 100 100 100 100
100 98 60 77 69 84 100 100 100 100 100 100 100 100 100 100 100 100 100 100 100 100 100 46 97 99 99 74 100 100 100 100
100 95 99 94 100 100 100 100 100 100 100 100 100 100 100 100 100 100 100 100 100 100 100 100 98 100 100 99 81 100 100 92
100 100 78 88 100 96 79 100 100 96 100 100 100 100 100 100 100 100 100 100 100 100 100 100 100 100 97 77 75 99 83 67
100 100 72 98 100 100 100 98 94 78 94 100 100 100 100 100 100 100 100 100 100 100 100 100 100 86 93 73 100 100 100 100
100 98 85 100 100 80 100 100 100 89 100 100 100 100 100 100 100 100 100 100 100 100 100 100 100 100 84 96 100 98 88 93
100 100 100 100 100 89 100 100 100 100 100 100 100 100 100 100 100 100 100 100 100 100 100 100 100 100 100 100 100 96 100 74
100 100 100 100 95 45 100 100 100 98 100 100 100 100 100 100 100 100 100 100 100 100 100 100 100 100 100 100 86 84 94 89
100 100 100 100 57 4 100 100 100 100 100 100 100 100 100 100 100 100 100 100 100 100 100 100 100 100 100 100 100 100 69 100
100 100 100 100 72 61 97 38 100 100 100 100 100 100 100 100 100 100 100 100 100 100 100 100 100 100 100 100 100 100 100 100
100 100 100 100 78 98 100 52 100 100 100 100 100 100 100 100 100 100 100 100 100 100 100 100 100 100 100 100 100 100 100 100
100 85 100 100 100 100 100 58 80 100 100 100 99 100 100 100 100 100 100 100 100 100 100 100 100 100 100 100 100 100 100 100

GFSFLT2_prec_cloud_087.txt.gz
Cloud_Cover
0 0 1 0 0 0 0 0 4 100 13 0 0 1 5 88 100 100 100 100 100 100 100 100 100 100 100 82 48 2 97 99
0 0 4 13 2 2 0 0 0 0 0 0 0 4 78 100 100 100 100 100 100 100 100 100 100 100 31 5 1 1 51 100
8 7 2 10 86 8 46 24 1 10 30 1 53 1 99 100 100 100 100 100 100 100 100 100 100 50 31 0 4 77 74 80
2 92 75 100 2 98 48 79 4 0 1 0 0 10 100 100 100 100 100 100 100 100 100 100 100 56 25 5 0 96 100 99
1 43 73 68 98 63 5 66 68 73 61 37 42 1 100 100 100 100 100 100 100 100 100 100 83 35 18 7 41 80 100 100
0 18 76 0 0 1 0 43 67 69 62 52 24 17 81 100 100 100 100 100 100 100 100 100 100 37 38 18 94 99 96 77
3 0 8 0 0 59 90 72 90 54 39 51 25 88 25 100 100 100 100 100 100 100 100 100 100 66 99 35 95 53 100 98
0 2 5 0 10 90 100 97 60 83 82 54 62 68 76 92 100 100 100 100 100 100 100 100 100 82 59 96 100 99 99 72
0 4 12 9 0 35 98 100 42 100 100 96 62 61 87 49 100 100 100 100 100 100 100 100 100 72 24 100 100 68 100 100
0 0 12 10 0 2 45 72 100 100 100 49 83 53 71 46 54 97 100 100 100 100 100 100 100 100 100 100 97 93 100 97
0 2 20 19 0 1 18 72 99 97 100 71 29 37 57 64 70 100 100 100 100 100 100 100 100 100 98 100 100 100 100 67
0 17 20 35 28 52 27 38 96 100 100 100 61 98 100 100 100 100 100 100 100 100 100 100 100 100 100 100 93 100 100 9
0 22 17 74 56 90 14 37 94 100 100 100 100 100 100 100 100 100 100 100 100 100 100 100 100 100 100 100 100 100 100 72
0 7 7 46 26 7 5 31 50 94 66 52 84 98 100 100 100 100 100 100 100 100 100 100 100 100 100 100 100 100 100 100
0 0 7 98 18 10 7 44 89 79 10 29 87 30 97 88 100 100 100 100 100 100 100 100 100 100 100 100 100 100 90 100
0 0 1 84 28 5 56 16 6 18 48 100 100 81 95 90 100 100 100 100 100 100 100 100 100 100 100 100 100 100 100 100
0 0 6 69 54 48 74 94 5 12 60 91 100 99 88 92 100 100 100 100 100 100 100 100 100 100 100 100 100 100 100 100
0 4 49 99 61 96 94 22 1 2 14 100 100 95 100 100 100 100 100 100 100 100 100 100 100 100 100 100 100 100 100 100
20 24 85 90 88 97 79 6 0 2 52 92 100 100 100 100 100 100 100 100 100 100 100 100 100 100 100 100 100 100 100 100
50 100 100 100 100 91 34 13 0 9 100 89 92 100 100 100 100 100 100 100 100 100 100 100 100 100 100 100 100 100 100 100

GFSFLT2_prec_cloud_090.txt.gz
Cloud_Cover
4 0 2 0 0 0 0 0 75 100 100 0 0 0 0 0 0 10 100 100 100 100 100 100 100 100 95 100 53 18 61 75
64 4 0 2 4 7 0 0 0 33 97 0 0 0 0 0 0 99 100 100 100 100 100 100 100 100 100 99 30 9 62 84
21 10 5 5 2 0 11 0 1 7 26 0 25 0 0 0 0 77 100 100 100 100 100 100 100 100 100 88 46 18 34 37
58 80 10 5 0 0 0 0 5 0 0 0 0 0 0 0 0 64 100 100 100 100 100 100 100 100 100 18 81 100 13 15
100 100 32 3 0 0 0 0 0 0 0 0 0 0 0 0 2 64 100 100 100 100 100 100 100 100 94 5 22 98 100 6
100 100 100 100 6 4 0 0 0 0 0 0 1 0 0 12 6 18 100 100 100 100 100 100 100 100 100 6 10 5 55 29
100 100 100 84 5 2 0 0 0 3 0 0 0 12 0 33 44 39 100 100 100 100 100 100 100 100 99 62 51 26 100 37
100 100 100 19 0 0 0 0 25 2 0 0 1 6 0 100 100 100 100 100 100 100 100 100 100 100 100 100 7 79 100 100
42 92 41 24 15 2 0 5 65 43 14 2 100 8 30 100 100 100 100 100 100 100 100 100 100 100 100 98 88 86 100 99
89 79 68 5 0 0 57 69 100 50 4 34 99 2 98 100 100 100 100 100 100 100 100 100 100 100 100 97 98 100 98 91
98 100 100 88 0 21 19 0 16 1 10 57 79 17 31 100 100 100 100 100 100 100 100 100 100 100 100 99 93 100 75 99
100 100 28 0 1 55 36 12 0 5 100 97 86 24 7 15 82 85 63 100 100 100 100 100 100 100 100 100 100 100 100 100
100 9 21 4 6 63 24 0 0 96 100 100 2 23 42 11 55 66 62 61 100 100 100 100 100 100 100 100 100 100 100 100
100 100 62 1 2 50 1 0 0 13 99 100 100 98 30 0 100 100 100 100 100 100 100 100 100 100 100 100 100 100 100 100
100 41 0 3 25 78 6 1 29 19 24 98 100 100 93 48 47 100 100 100 100 100 100 100 100 100 100 100 100 100 100 100
100 99 5 3 66 7 11 0 6 3 9 29 8 28 45 50 43 92 94 100 100 100 100 100 100 100 100 100 100 100 100 100
100 100 52 0 75 15 8 5 32 5 5 3 20 100 98 86 100 83 98 100 100 100 100 100 100 100 100 100 100 100 100 100
98 86 2 2 17 23 14 42 3 24 5 0 100 82 100 100 96 85 99 100 90 100 100 100 100 100 100 100 100 100 100 100
62 5 0 0 36 93 15 10 34 13 0 18 58 99 100 100 100 98 100 100 100 100 100 100 100 100 100 100 100 100 100 100
98 5 0 0 72 94 55 58 51 16 0 97 81 97 8 97 100 99 100 100 100 100 100 100 100 100 100 100 100 100 100 100

GFSFLT2_prec_cloud_093.txt.gz
Cloud_Cover
100 100 100 4 10 5 0 2 5 100 100 100 26 0 0 0 0 0 0 6 83 100 100 100 100 100 100 100 100 52 28 0
100 100 100 100 88 5 2 2 2 100 100 76 0 0 0 0 0 0 0 23 60 100 100 100 100 100 100 100 100 97 5 4
100 100 100 100 94 11 6 4 5 7 89 29 0 0 0 0 0 0 0 5 5 98 100 100 100 100 100 100 100 64 54 47
100 100 100 100 100 52 84 99 100 23 7 2 0 1 0 0 0 0 0 0 5 96 100 100 100 100 100 100 100 62 44 89
100 100 100 100 100 34 100 100 99 99 22 4 2 5 2 3 2 0 1 4 14 96 100 100 100 100 100 100 100 90 85 100
100 100 100 100 19 83 100 100 100 100 9 0 0 11 1 16 20 24 24 12 5 94 100 100 100 100 100 100 100 99 12 100
100 100 100 96 74 100 100 100 100 22 0 1 0 0 0 12 65 68 94 100 11 55 100 100 100 100 100 100 100 94 65 100
89 100 100 100 100 100 100 100 47 1 3 0 0 0 1 5 40 100 100 100 33 84 100 100 100 100 100 100 100 60 82 86
4 100 95 100 100 100 100 91 5 73 10 0 0 0 0 6 22 100 100 100 100 100 100 100 100 100 100 100 100 99 100 100
80 100 100 100 5 66 100 100 100 24 11 4 0 0 2 5 16 100 100 100 100 100 100 100 100 100 100 100 100 100 100 98
22 79 100 100 8 100 100 100 39 6 16 9 0 0 25 5 14 100 100 100 100 100 100 100 100 100 100 100 100 100 100 100
34 89 55 100 23 100 100 100 84 50 10 2 0 44 51 5 95 100 100 100 100 100 100 100 100 100 100 100 100 100 100 100
88 100 100 100 100 100 100 100 34 17 2 2 88 100 33 81 76 100 100 100 100 100 100 100 100 100 100 100 100 100 100 100
100 100 100 100 100 100 100 97 10 1 24 99 100 41 16 12 7 61 100 100 100 100 100 100 100 100 100 100 100 100 100 100
100 100 100 100 56 100 100 79 6 10 16 63 100 100 52 12 16 44 80 98 98 90 100 100 100 100 100 100 100 100 100 100
93 100 100 100 100 100 100 100 46 21 2 5 62 100 100 78 51 100 39 64 51 100 100 100 100 100 100 100 100 100 100 100
98 100 100 100 100 100 71 56 5 5 16 5 11 71 37 45 48 97 67 70 100 99 100 99 100 100 100 100 100 100 100 100
100 100 100 100 98 82 63 43 1 2 79 5 10 81 84 76 75 100 77 95 97 100 96 100 100 100 100 100 100 100 100 100
100 100 100 100 98 7 7 0 24 2 70 12 24 34 100 96 100 99 100 95 99 100 100 100 100 100 100 100 100 100 100 100
98 100 100 100 100 64 100 100 73 5 99 8 16 1 31 98 100 100 100 100 100 100 100 100 100 100 100 100 100 100 100 100

GFSFLT2_prec_cloud_096.txt.gz
Cloud_Cover
35 39 15 0 0 2 74 25 72 100 8 5 0 0 0 0 0 0 0 0 0 42 51 32 96 100 100 100 100 100 100 23
78 45 36 29 23 9 25 100 98 100 100 100 5 2 0 0 0 0 0 0 2 65 19 99 5 100 100 100 100 100 22 35
97 50 45 56 86 100 100 100 100 100 100 100 15 9 2 5 4 5 0 4 45 21 41 5 5 100 100 100 100 100 96 38
100 100 92 58 100 100 87 48 100 100 100 100 99 39 7 10 24 4 3 20 0 1 5 5 7 95 100 100 100 100 100 48
99 43 100 25 53 100 100 100 100 50 100 100 100 100 97 86 28 15 4 0 0 2 16 16 90 81 100 100 100 100 100 86
74 98 5 10 26 98 100 100 100 100 100 100 100 100 71 32 18 34 18 14 15 93 34 100 99 100 100 100 100 100 100 90
16 92 4 9 84 99 93 75 100 100 100 100 100 73 40 35 28 27 23 30 29 92 100 60 99 100 100 100 100 100 100 100
77 89 72 5 4 87 100 100 100 100 100 100 52 19 32 35 59 47 22 34 69 100 100 98 100 100 100 100 100 100 100 100
100 100 94 5 4 3 27 99 100 79 26 8 42 46 22 42 100 98 19 49 100 100 100 84 100 100 100 100 100 100 100 100
100 75 87 48 9 93 100 100 88 38 20 96 65 96 18 36 92 100 96 60 100 100 100 100 100 100 100 100 100 100 100 97
100 78 100 100 35 73 100 75 63 97 66 99 100 100 5 6 32 62 91 100 100 100 100 100 100 100 100 100 100 100 100 100
100 100 100 100 46 90 100 100 100 96 100 100 100 50 0 0 19 50 100 100 100 100 100 100 100 100 100 100 100 100 100 100
5 100 100 100 100 100 100 100 100 98 100 100 95 15 27 31 16 54 94 100 100 100 100 100 100 100 100 100 100 100 100 100
28 98 100 100 100 100 97 100 97 100 100 69 100 34 100 98 44 55 99 100 100 100 100 100 100 100 100 100 100 100 100 100
99 98 100 100 100 100 90 100 100 92 96 100 67 67 89 100 94 28 97 100 100 100 96 100 100 100 100 100 100 100 100 100
100 100 100 100 100 100 88 100 82 98 93 92 78 100 100 100 100 40 67 88 100 100 100 100 100 100 100 100 100 100 100 100
100 100 100 100 100 100 44 100 83 96 92 5 6 77 100 100 70 92 100 100 100 100 100 100 100 100 100 100 100 100 100 100
100 100 100 100 100 46 37 98 86 100 16 97 61 46 91 100 92 82 100 99 58 64 97 100 100 100 100 100 100 100 100 100
100 100 98 99 93 99 100 100 100 73 66 90 100 96 76 70 99 100 100 82 34 53 100 100 92 92 100 100 100 100 100 100
100 100 90 98 100 100 100 100 100 100 100 100 100 100 100 100 74 86 100 100 100 90 100 100 98 58 97 100 100 100 100 100

GFSFLT2_prec_cloud_102.txt.gz
Cloud_Cover
74 67 36 1 5 13 5 5 0 0 0 0 0 0 0 4 5 19 8 0 0 0 0 0 2 2 100 61 38 87 27 71
100 100 88 48 29 3 4 19 5 0 0 0 0 1 4 4 5 5 5 1 0 0 0 0 0 2 4 88 8 11 66 85
100 100 100 88 44 29 19 18 16 14 9 5 25 37 5 5 5 35 0 0 1 0 0 0 2 4 41 4 64 32 27 79
100 100 100 100 98 74 76 99 87 63 52 31 37 70 18 6 5 5 3 0 0 0 29 5 91 54 14 19 99 36 49 100
82 100 100 100 100 100 100 100 98 25 2 10 33 49 34 48 61 34 8 0 16 12 19 25 12 32 90 86 93 100 31 100
0 74 99 99 100 100 100 100 53 22 5 2 37 100 93 46 97 58 21 23 9 14 22 18 21 31 40 70 92 100 73 100
2 19 51 63 100 100 100 100 100 98 85 99 91 96 100 87 89 72 26 32 16 32 32 32 31 59 83 67 71 90 100 100
59 6 13 81 100 100 100 100 100 100 100 100 100 100 100 100 100 100 50 31 28 34 30 39 34 89 72 98 65 100 100 100
5 8 11 38 77 100 100 100 100 100 100 100 100 100 100 100 100 100 100 87 39 42 54 38 40 53 96 99 100 100 100 100
5 14 21 3 28 100 64 99 100 100 100 100 100 100 97 96 100 100 100 100 89 100 84 73 76 96 100 91 100 100 100 100
4 0 8 37 17 100 99 89 100 100 100 100 100 100 74 100 100 100 100 100 100 100 100 85 94 100 98 93 96 100 100 100
5 5 4 34 60 100 98 90 100 100 100 100 100 100 74 96 100 100 100 100 100 100 100 100 96 100 85 100 100 100 100 100
5 4 3 28 94 100 100 100 100 100 100 100 87 100 100 100 100 100 100 100 100 100 100 100 100 100 95 100 100 100 100 100
9 5 2 18 7 86 92 100 100 100 100 99 100 100 100 100 100 100 100 100 100 100 100 100 100 100 100 100 100 100 100 100
12 4 0 0 0 65 100 90 100 100 100 100 100 100 100 100 100 100 100 100 96 100 100 100 100 100 100 100 100 100 100 100
1 0 35 6 22 66 100 90 47 100 100 100 100 100 100 100 100 100 100 100 100 100 100 100 100 100 100 100 100 100 84 100
59 44 52 2 64 18 41 53 24 66 100 100 100 100 100 100 100 100 100 96 100 100 100 100 100 100 100 100 100 100 100 100
60 89 70 72 96 92 94 98 96 33 100 100 100 100 100 100 100 100 100 98 100 100 100 100 100 100 100 100 100 100 100 100
77 100 100 100 88 95 98 73 88 22 100 100 100 100 100 100 82 100 100 100 81 79 99 100 100 100 100 100 100 100 100 100
100 100 100 97 100 100 100 100 42 29 100 100 100 100 100 100 100 100 100 100 100 100 68 100 100 100 100 100 100 100 100 100